SCP
0 0 0 0 0 0 0 0 0 0 0 0 0 1 1 1 1 1 1 1 1 1 2 2 2 2 2 2 2 2 2 2 1 1 1 1 1 1 1 1 1 1 1 1
0 0 0 0 0 0 0 0 0 0 0 0 1 1 1 1 1 1 1 1 1 1 2 2 2 2 2 2 2 2 2 2 1 1 1 1 1 1 1 1 1 2 2 1
0 0 0 0 0 0 0 0 0 0 0 1 1 1 1 1 1 1 1 1 1 1 1 2 2 2 2 2 2 2 2 2 2 2 1 1 1 1 2 2 2 2 2 2
0 0 0 0 0 0 0 0 0 0 1 1 1 1 1 1 1 1 1 1 1 1 1 2 2 2 2 2 2 2 2 2 2 2 2 2 2 2 2 2 2 2 2 2
0 0 0 0 0 0 0 0 0 0 1 1 1 1 1 2 2 2 1 1 1 1 1 2 2 2 2 2 2 2 2 2 2 2 2 2 2 2 2 2 2 2 2 2
0 0 0 0 0 0 0 0 0 1 1 1 1 1 2 2 2 2 2 1 1 1 2 2 2 2 2 2 2 2 2 2 2 2 2 2 2 2 2 2 2 1 1 1
0 0 0 0 0 0 1 1 1 1 1 1 1 2 2 2 2 2 2 1 2 2 2 2 2 2 2 2 2 2 2 2 2 2 2 2 2 2 2 2 1 1 1 1
0 0 0 0 1 1 1 1 1 1 1 2 2 2 2 2 2 1 1 1 2 2 2 2 2 2 2 2 2 2 2 2 2 2 2 2 2 2 2 1 1 1 1 1
0 0 1 1 1 1 1 1 1 1 2 2 2 2 2 1 1 1 1 1 1 2 2 2 2 2 2 1 1 1 1 2 2 2 1 1 1 1 1 1 1 1 1 1
1 1 1 1 1 1 1 1 1 1 1 1 1 1 1 1 1 1 1 1 1 1 1 1 1 1 1 1 1 1 1 1 1 1 1 1 1 1 1 1 1 1 1 1
1 1 1 1 1 1 1 1 1 1 1 1 1 1 1 1 1 1 1 1 1 1 1 1 1 1 1 1 1 1 1 1 1 1 1 1 1 0 0 0 0 0 0 0
1 1 1 1 0 0 1 1 1 1 1 1 1 1 1 1 1 1 1 1 1 1 1 1 1 1 1 1 1 1 1 1 1 1 1 0 0 0 0 0 0 0 0 0
0 0 0 0 0 0 0 0 0 0 1 1 1 1 1 1 1 1 1 1 1 1 1 1 1 1 1 1 1 1 1 1 1 1 0 0 0 0 0 0 0 0 0 0
0 0 0 0 0 0 0 0 0 0 1 1 1 1 1 1 1 1 1 1 1 1 1 1 1 1 1 1 1 1 1 1 1 1 0 0 0 0 0 0 0 0 0 0
0 0 0 0 0 0 0 0 0 0 0 1 1 1 1 1 1 1 1 1 1 1 1 1 1 1 1 1 1 1 1 1 0 0 0 0 0 0 0 0 0 0 0 0
0 0 0 0 0 0 0 0 0 0 0 0 0 0 0 1 1 1 0 0 1 1 1 1 1 1 1 1 1 1 1 1 0 0 0 0 0 0 0 0 0 0 0 0
0 0 0 0 0 0 0 0 0 0 0 0 0 0 0 1 0 0 0 0 1 1 1 1 1 1 1 1 1 1 1 0 0 0 0 0 0 0 0 0 0 0 0 0
0 0 0 0 0 0 0 0 0 0 0 0 0 0 0 1 1 0 0 0 0 1 1 1 1 1 1 1 1 1 0 0 0 0 0 0 0 0 0 0 0 0 0 0
0 0 0 0 0 0 0 0 0 0 0 0 0 0 0 1 1 1 0 0 0 0 0 0 0 1 1 1 1 0 0 0 0 0 0 0 0 0 0 0 0 0 0 0
0 0 0 0 0 0 0 0 0 0 0 0 0 1 1 1 1 1 0 0 0 0 0 0 0 0 0 0 0 0 0 0 0 0 0 0 0 0 0 0 0 0 0 0
0 0 0 0 0 0 0 0 0 0 0 0 0 1 1 1 1 1 0 0 0 0 0 0 0 0 0 0 0 0 0 0 0 0 0 0 0 0 0 0 0 0 0 0
0 0 0 0 0 0 0 0 0 0 0 0 0 0 1 1 0 0 0 0 0 0 0 0 0 0 0 0 0 0 0 0 0 0 0 1 1 0 0 0 0 0 0 0
0 0 0 0 0 0 0 0 0 0 0 0 0 0 0 0 0 0 0 0 0 0 0 0 0 0 0 0 0 0 0 0 0 0 0 0 0 0 0 0 0 0 0 0
0 0 0 0 0 0 0 0 0 0 0 0 0 0 0 0 0 0 0 0 0 0 0 0 0 0 0 0 0 0 0 0 0 0 0 0 0 0 0 0 0 0 0 0
0 0 0 0 0 0 0 0 0 0 0 0 0 0 0 0 0 0 0 0 0 0 0 0 0 0 0 0 0 0 0 0 0 0 0 0 0 0 0 0 0 0 0 0
0 0 0 0 0 0 0 0 0 0 0 0 0 0 0 0 0 0 0 0 0 0 0 0 0 0 0 0 0 0 0 0 0 0 0 0 0 0 0 0 0 0 0 0
0 0 0 0 0 0 0 0 0 0 0 0 0 0 0 0 0 0 0 0 0 0 0 0 0 0 0 0 0 0 0 0 0 0 0 0 0 0 0 0 0 0 0 0
Wind_Speed
15 14 14 13 13 13 13 12 11 8 5 4 4 4 6 7 6 7 7 6 6 4 4 3 3 3 3 3 2 2 3 3 2 2 2 2 2 2 2 3 3 2 3 3
15 16 16 15 13 13 13 12 11 9 5 2 6 5 5 6 7 7 6 5 5 5 4 2 3 3 3 2 2 2 2 2 2 1 2 2 2 2 2 2 2 2 3 3
13 15 16 15 12 11 11 9 9 7 2 2 4 4 3 4 5 5 5 5 4 4 3 2 2 2 3 2 2 1 1 1 1 1 1 1 2 2 2 2 2 3 3 3
12 14 18 11 9 9 9 7 6 3 1 1 2 2 3 2 4 5 5 4 4 3 3 2 2 3 2 2 2 1 1 1 0 1 1 1 2 2 2 2 2 3 3 3
10 14 15 12 8 8 8 6 4 1 1 1 1 1 3 4 5 5 4 4 3 3 3 2 2 2 1 1 1 0 0 0 0 1 1 1 2 2 2 2 3 3 3 3
11 14 14 8 5 4 6 6 2 3 3 1 2 3 2 5 5 6 4 4 3 2 3 3 2 2 1 0 0 1 0 1 0 1 1 2 2 2 2 2 3 3 3 3
14 15 11 5 6 4 5 1 4 3 2 1 0 2 4 5 5 5 4 3 3 3 3 3 3 2 1 0 1 1 1 1 1 1 1 1 1 1 1 2 2 3 2 3
11 14 7 5 3 2 3 4 4 4 5 4 5 6 6 5 5 4 3 3 3 3 3 3 2 2 1 1 2 1 1 1 1 1 2 1 1 1 1 2 2 2 2 2
5 3 2 4 4 4 3 4 3 4 5 5 5 5 4 4 4 4 3 3 3 2 2 2 2 2 1 1 2 1 1 1 1 1 1 1 1 1 1 1 2 2 2 2
4 1 3 4 3 3 4 4 3 3 3 3 4 4 3 3 3 3 3 2 2 1 1 1 1 1 1 1 1 2 2 1 1 0 1 1 1 2 1 1 2 3 3 3
4 2 2 2 4 4 3 2 1 1 1 2 3 3 2 2 2 2 2 2 1 1 0 1 0 0 1 1 1 2 2 2 2 1 1 1 1 1 1 1 1 1 2 3
3 2 2 2 2 3 2 1 0 0 1 1 2 3 3 2 2 2 1 1 1 1 1 1 0 1 1 1 1 2 2 2 2 1 1 1 1 0 2 1 2 2 1 1
3 4 3 3 2 2 2 2 2 1 1 1 2 3 3 2 2 2 1 1 0 0 1 1 1 1 1 1 1 2 2 2 2 2 2 1 1 1 1 0 1 1 0 1
3 3 3 4 4 2 3 2 2 1 1 1 2 3 3 2 2 1 1 0 0 1 1 1 1 1 1 1 2 3 3 3 2 2 2 2 2 2 2 2 2 2 2 2
4 3 3 4 4 3 3 2 2 1 1 1 3 3 3 2 2 1 1 1 1 1 2 2 2 2 2 2 2 3 3 3 2 3 3 2 2 3 3 3 2 2 1 1
3 3 3 3 3 3 2 3 2 1 1 1 2 2 2 2 1 1 1 1 2 2 1 2 2 2 2 2 3 3 3 4 4 4 4 2 2 3 3 3 2 1 1 1
2 3 3 3 3 3 3 3 3 2 2 2 2 2 2 2 1 1 1 2 2 2 2 2 3 3 2 3 4 3 3 4 5 4 3 2 2 3 3 2 1 2 1 1
2 2 3 3 3 4 3 3 2 2 2 2 2 3 3 3 2 2 2 2 2 3 3 3 3 2 2 3 3 4 4 3 2 2 2 1 2 3 3 2 1 1 1 1
2 1 2 3 3 3 3 3 2 2 1 1 1 1 1 2 3 3 3 3 3 3 3 3 3 3 3 2 3 3 4 4 2 2 2 1 2 2 2 1 1 1 1 1
2 3 2 3 3 2 2 2 2 2 1 1 2 2 2 3 3 2 2 2 2 2 3 2 2 3 3 2 2 4 4 3 3 2 2 2 2 1 1 1 1 0 1 1
2 2 2 3 3 3 2 2 2 2 1 1 1 2 1 1 1 1 2 3 1 2 3 2 2 2 2 3 4 5 4 3 3 2 2 2 2 1 0 0 0 0 1 1
3 3 2 3 3 3 2 1 1 1 1 1 2 1 1 1 2 2 2 2 2 1 2 2 1 2 2 3 3 4 3 2 2 2 1 1 1 1 0 0 0 1 1 1
2 2 3 3 3 3 3 2 2 1 1 1 2 2 2 1 2 2 3 2 1 1 2 1 1 1 1 3 3 3 3 3 2 2 1 1 1 1 1 0 0 1 1 1
3 3 3 3 3 3 3 3 2 2 2 2 2 2 2 2 2 3 2 1 1 2 1 1 2 1 2 2 2 2 2 2 2 2 1 1 1 1 1 1 1 0 1 1
3 3 4 4 3 3 3 3 2 2 3 3 3 2 2 2 2 2 1 0 2 2 2 2 3 3 3 2 2 2 2 1 1 2 1 1 0 0 0 1 1 1 1 1
3 4 3 3 3 3 3 2 2 2 2 2 2 2 1 1 1 1 1 1 1 1 2 1 2 2 2 2 2 2 1 1 1 1 1 1 1 1 0 1 1 1 1 1
4 3 2 3 2 3 3 2 2 2 1 1 2 2 2 1 1 1 0 0 0 1 1 1 1 1 1 1 1 1 1 1 1 1 1 1 1 1 1 2 1 1 1 1
Wind_Direction
271 273 265 262 253 249 251 260 269 270 246 200 161 145 133 138 144 142 133 126 116 108 99 108 118 126 121 115 107 128 151 165 166 184 201 217 225 231 231 230 236 235 242 247
270 270 269 266 256 251 251 255 261 267 256 159 127 134 151 157 156 148 142 138 129 123 119 107 119 125 118 114 113 119 142 153 158 188 204 219 237 238 238 242 246 238 241 251
267 273 275 262 260 258 258 258 266 274 286 100 136 152 155 161 156 147 141 137 134 132 127 114 110 104 113 111 117 125 147 156 155 198 217 234 250 253 250 247 244 248 251 254
267 268 262 265 276 272 268 264 267 276 360 65 112 119 112 143 142 131 132 132 133 141 143 128 118 103 98 122 129 158 180 156 118 234 235 241 252 258 258 258 252 253 254 253
259 261 259 258 266 270 267 261 284 285 132 85 77 132 123 96 88 98 103 104 117 131 140 124 119 111 99 104 121 201 228 163 101 286 266 260 260 263 267 262 256 251 256 252
252 260 263 275 296 292 269 250 359 44 57 80 161 212 129 91 85 76 68 75 83 115 121 115 108 110 121 103 227 261 332 337 1 301 281 270 267 263 267 264 269 269 261 260
247 254 259 320 333 290 251 334 34 36 73 33 55 37 92 98 91 86 70 61 64 65 83 91 101 112 137 313 307 327 341 340 343 303 275 268 302 306 295 288 285 280 275 264
248 254 255 355 348 358 27 41 48 56 83 83 78 83 92 100 98 94 91 73 61 64 70 74 95 112 100 26 4 5 9 7 12 354 316 12 9 331 335 314 299 290 283 285
257 270 54 28 29 38 44 44 47 62 80 93 98 103 100 99 106 104 84 74 67 69 73 75 90 93 63 22 10 356 4 3 6 359 348 354 338 337 339 330 317 311 304 295
290 271 24 23 17 40 52 45 48 70 94 97 114 118 118 113 107 110 107 106 94 87 71 77 100 72 10 350 346 340 331 332 314 324 333 351 330 341 353 359 347 339 335 327
262 274 299 318 4 27 59 74 70 62 80 109 127 127 118 115 108 104 115 121 112 103 146 187 126 7 300 312 313 307 286 284 279 275 282 298 318 351 346 52 44 331 335 331
284 340 308 328 356 340 351 350 21 112 122 130 125 128 126 117 107 92 73 78 130 180 225 225 219 250 303 318 299 289 281 279 278 272 256 239 231 222 55 88 110 79 18 318
342 349 340 315 296 290 284 283 279 263 196 173 147 143 140 138 132 136 148 156 140 258 244 234 240 253 248 282 297 289 278 275 281 283 268 262 263 265 250 147 165 175 212 309
351 333 314 310 298 290 269 255 259 256 214 160 143 139 137 133 132 140 165 189 287 299 275 250 266 290 297 265 264 277 274 264 265 271 275 269 262 260 262 260 248 235 214 219
338 325 297 292 289 278 271 255 240 230 184 178 161 157 149 149 156 159 171 273 276 269 276 298 311 314 318 290 263 262 269 272 270 273 264 257 267 264 261 264 263 254 193 165
314 316 296 286 286 284 274 258 250 242 215 198 161 160 158 155 150 150 200 249 260 268 295 317 304 296 295 287 280 265 256 253 259 264 266 261 269 277 274 266 267 252 207 147
274 286 294 298 293 282 278 278 274 267 245 215 190 178 175 168 184 221 247 257 253 249 262 272 274 279 285 288 282 275 265 246 234 246 259 283 305 298 291 287 294 309 302 134
293 284 287 286 297 301 290 286 281 279 268 257 194 186 191 197 216 236 252 259 258 253 261 268 266 263 268 283 292 289 282 280 267 263 245 235 262 275 290 295 312 324 309 168
353 317 299 288 286 292 291 288 286 281 266 194 223 233 221 231 238 250 264 266 262 269 274 285 274 255 261 273 286 269 275 277 276 273 270 218 231 249 265 285 330 348 6 53
351 347 344 317 295 287 284 292 299 294 272 214 215 235 239 247 254 266 273 272 285 300 314 310 276 274 277 270 274 276 277 279 279 276 278 260 251 256 256 277 306 0 61 58
12 356 345 326 304 288 277 280 279 263 254 243 233 240 254 275 253 239 256 271 295 297 296 305 289 292 294 290 263 271 280 288 286 288 289 290 282 271 232 219 247 113 100 87
353 2 353 330 323 325 330 312 289 275 262 248 247 241 234 240 255 261 250 265 284 284 271 278 300 10 359 315 290 290 296 298 294 296 296 298 301 301 339 78 74 89 82 70
327 331 327 329 327 320 319 318 313 302 293 283 273 259 255 267 273 271 270 251 232 200 244 290 26 52 336 292 298 305 314 329 337 326 317 310 294 254 202 180 138 112 103 95
322 321 316 309 302 304 305 307 304 293 282 268 262 267 270 269 263 258 270 201 164 177 232 130 139 163 272 283 290 295 310 332 334 336 337 328 310 293 162 131 121 131 116 109
295 297 298 298 292 287 283 278 274 266 270 273 275 268 260 272 285 293 296 211 156 194 227 180 190 206 234 272 281 287 295 325 349 354 324 298 330 24 113 121 124 118 99 91
266 272 281 286 289 290 288 282 276 275 278 290 297 299 289 269 264 257 250 200 166 233 267 216 183 201 237 257 261 263 274 256 239 239 293 354 354 340 114 127 122 110 102 99
250 250 252 263 276 288 297 295 290 296 300 295 291 289 293 292 285 282 295 346 29 302 295 277 251 224 241 240 261 296 340 359 8 27 37 54 39 29 39 71 78 72 62 73